Weather History for Big Piney, WY

Change the Weather History Date:

Monday, February 18, 2013

  Actual Average Record
Temperature  
Mean Temperature 12 °F 15 °F  
Max Temperature 26 °F 30 °F 44 °F (1996)
Min Temperature -2 °F 1 °F -34 °F (2006)
Degree Days  
Heating Degree Days 53 50  
Month to date heating degree days 881 937  
Since 1 July heating degree days 6355 7050  
Cooling Degree Days 0 0  
Month to date cooling degree days 0 0  
Year to date cooling degree days 0 0  
Moisture  
Dew Point 4 °F    
Average Humidity 73    
Maximum Humidity 91    
Minimum Humidity 55    
Precipitation  
Precipitation 0.00 in 0.01 in 0.01 in (1977)
Month to date precipitation 0.09 0.22  
Year to date precipitation 0.16 0.53  
Sea Level Pressure  
Sea Level Pressure 30.16 in    
Wind  
Wind Speed 5 mph (East)    
Max Wind Speed 16 mph    
Max Gust Speed 17 mph    
Visibility 10 miles    
Events      
T = Trace of Precipitation, MM = Missing Value Source: NWS Daily Summary

Daily Weather History Graph

Daily Weather History Graph

Search for Another Location

Airport:

Trip Planner

Search our weather history database for the weather conditions in past years. The results will help you decide how hot, cold, wet, or windy it might be!

Date:

Astronomy

Feb. 18, 2013 Rise Set
Actual Time 7:12 AM MST 5:56 PM MST
Civil Twilight 6:43 AM MST 6:25 PM MST
Nautical Twilight 6:10 AM MST 6:58 PM MST
Astronomical Twilight 5:38 AM MST 7:31 PM MST
Moon 11:41 AM MST 1:58 AM MST
Length of Visible Light 11h 41m
Length of Day
10h 44m
First Quarter, 59% of the Moon is Illuminated
Feb 18
First Quarter
Feb 25
Full
Mar 4
Last Quarter
Mar 11
New
Mar 19
First Quarter

Hourly Weather History & Observations

Time (MST) Temp. Windchill Dew Point Humidity Pressure Visibility Wind Dir Wind Speed Gust Speed Precip Events Conditions
12:53 AM 8.1 °F -4.3 °F 1.0 °F 73% 30.05 in 10.0 mi NE 8.1 mph - N/A   Clear
1:53 AM 10.9 °F -4.7 °F 3.0 °F 70% 30.05 in 10.0 mi North 13.8 mph - N/A   Clear
2:53 AM 10.0 °F -3.7 °F 1.9 °F 70% 30.06 in 10.0 mi North 10.4 mph - N/A   Clear
3:53 AM -0.9 °F -15.3 °F -5.1 °F 83% 30.13 in 10.0 mi SSW 8.1 mph - N/A   Clear
4:53 AM 1.0 °F -8.7 °F -4.0 °F 79% 30.14 in 10.0 mi SW 4.6 mph - N/A   Partly Cloudy
5:53 AM 1.9 °F -5.6 °F -2.9 °F 80% 30.18 in 10.0 mi Variable 3.5 mph - N/A   Overcast
6:53 AM 3.9 °F - -2.0 °F 76% 30.18 in 10.0 mi Calm Calm - N/A   Overcast
7:53 AM 5.0 °F -2.1 °F -0.0 °F 80% 30.20 in 10.0 mi NE 3.5 mph - N/A   Overcast
8:53 AM 6.1 °F -0.9 °F -0.0 °F 76% 30.21 in 10.0 mi East 3.5 mph - N/A   Overcast
9:53 AM 12.0 °F 5.9 °F 3.9 °F 70% 30.20 in 10.0 mi ESE 3.5 mph - N/A   Overcast
10:53 AM 16.0 °F 8.8 °F 7.0 °F 68% 30.20 in 10.0 mi SSE 4.6 mph - N/A   Clear
11:53 AM 19.9 °F 13.4 °F 10.9 °F 68% 30.17 in 10.0 mi ESE 4.6 mph - N/A   Scattered Clouds
12:53 PM 21.9 °F 17.2 °F 12.0 °F 66% 30.17 in 10.0 mi ESE 3.5 mph - N/A   Clear
1:53 PM 24.1 °F 18.2 °F 12.0 °F 60% 30.13 in 10.0 mi Variable 4.6 mph - N/A   Clear
2:53 PM 25.0 °F 20.7 °F 10.9 °F 55% 30.13 in 10.0 mi ESE 3.5 mph - N/A   Clear
3:53 PM 24.1 °F 18.2 °F 10.0 °F 55% 30.18 in 10.0 mi ESE 4.6 mph - N/A   Clear
4:53 PM 24.1 °F - 10.0 °F 55% 30.17 in 10.0 mi Calm Calm - N/A   Clear
5:53 PM 21.0 °F - 10.0 °F 63% 30.17 in 10.0 mi Calm Calm - N/A   Clear
6:53 PM 15.1 °F - 8.1 °F 74% 30.19 in 10.0 mi Calm Calm - N/A   Clear
7:53 PM 9.0 °F -5.9 °F 3.9 °F 80% 30.20 in 10.0 mi NE 11.5 mph - N/A   Clear
8:53 PM 5.0 °F -4.1 °F 1.0 °F 84% 30.23 in 10.0 mi WNW 4.6 mph - N/A   Clear
9:53 PM 3.9 °F -5.3 °F -0.0 °F 84% 30.21 in 10.0 mi NNE 4.6 mph - N/A   Clear
10:53 PM -0.0 °F -7.9 °F -2.9 °F 88% 30.20 in 10.0 mi East 3.5 mph - N/A   Clear
11:53 PM 1.0 °F - -2.9 °F 83% 30.16 in 10.0 mi Calm Calm - N/A   Clear